This is the latest recevied weather packets stored in our database for station/object F5LKO-13. If no packets are shown the sender has not sent any weather packets the latest 10 day(s).
| Time | Temp. | Humidity | Pressure | Rain* | Wind** | Luminosity | Snow |
|---|---|---|---|---|---|---|---|
| 1777813271 | 20.56° C | 99% | 1013.9 hPa | 0 mm | - | 0 W/m² | - |
| 1777812975 | 21.11° C | 99% | 1013.9 hPa | 0 mm | - | 0 W/m² | - |
| 1777812660 | 21.11° C | 99% | 1013.9 hPa | 0 mm | - | 1 W/m² | - |
| 1777812355 | 21.11° C | 99% | 1013.9 hPa | 0 mm | - | 1 W/m² | - |
| 1777812049 | 21.67° C | 99% | 1013.9 hPa | 0 mm | - | 1 W/m² | - |
| 1777811744 | 22.78° C | 99% | 1014 hPa | 0 mm | - | 1 W/m² | - |
| 1777811438 | 22.22° C | 99% | 1014.1 hPa | 0 mm | - | 2 W/m² | - |
| 1777811140 | 22.78° C | 99% | 1014.1 hPa | 0 mm | - | 5 W/m² | - |
| 1777810825 | 22.78° C | 99% | 1014 hPa | 0 mm | - | 5 W/m² | - |
| 1777810519 | 22.78° C | 99% | 1014.1 hPa | 0 mm | - | 4 W/m² | - |
| 1777810213 | 23.33° C | 99% | 1014.1 hPa | 0 mm | - | 4 W/m² | - |
| 1777809907 | 23.33° C | 99% | 1014.1 hPa | 0 mm | - | 5 W/m² | - |
| 1777809601 | 22.78° C | 99% | 1014.1 hPa | 0 mm | - | 8 W/m² | - |
| 1777809305 | 22.78° C | 99% | 1014.2 hPa | 0 mm | - | 29 W/m² | - |
| 1777808990 | 23.33° C | 99% | 1014.2 hPa | 0 mm | - | 9 W/m² | - |
| 1777808685 | 23.33° C | 99% | 1014.1 hPa | 0 mm | - | 8 W/m² | - |
| 1777808378 | 23.33° C | 99% | 1014.3 hPa | 0 mm | - | 12 W/m² | - |
| 1777808073 | 23.33° C | 99% | 1014.3 hPa | 0 mm | - | 11 W/m² | - |
| 1777807767 | 25° C | 99% | 1014.4 hPa | 0 mm | - | 34 W/m² | - |
| 1777807469 | 24.44° C | 99% | 1014.4 hPa | 0 mm | - | 45 W/m² | - |
| 1777807154 | 24.44° C | 99% | 1014.5 hPa | 0 mm | - | 93 W/m² | - |
| 1777806848 | 23.89° C | 99% | 1014.6 hPa | 0 mm | - | 86 W/m² | - |
| 1777806543 | 23.33° C | 99% | 1014.6 hPa | 0 mm | - | 61 W/m² | - |
| 1777806237 | 21.67° C | 99% | 1014.7 hPa | 0 mm | - | 30 W/m² | - |
| 1777805931 | 22.22° C | 99% | 1014.8 hPa | 0 mm | - | 14 W/m² | - |
* Rain latest hour (hover to see other rain measurements)
** Current wind speed in m/s (hover to see current wind gust speed)